GW1815 Weather Reports


time (UTC)temp
C
wind
direction
speed
KPH
gust
KPH
rain 1hr
cm
rain 24hr
cm
rain mn
cm
humidity
%
barometer
mb
20260906130042 18 0 3.2 14.5 0.00 0.00 0.00 94 1019.3
20260906124544 17 46 1.6 6.4 0.00 0.00 0.00 94 1019.2
20260906123108 17 0 0.0 4.8 0.00 0.00 0.00 94 1019.0
20260906121540 16 0 0.0 3.2 0.00 0.00 0.00 93 1018.9
20260906120039 16 0 0.0 0.0 0.00 0.00 0.00 93 1018.8
20260906114541 16 0 0.0 1.6 0.00 0.00 0.00 93 1018.7
20260906113041 16 0 0.0 0.0 0.00 0.00 0.00 93 1018.5
20260906111541 17 0 0.0 0.0 0.00 0.00 0.00 93 1018.5
20260906110038 17 0 0.0 0.0 0.00 0.00 0.00 93 1018.2
20260906104542 17 0 0.0 1.6 0.00 0.00 0.00 93 1018.1
20260906103038 17 0 0.0 0.0 0.00 0.00 0.00 93 1018.1
20260906101542 17 0 0.0 1.6 0.00 0.00 0.00 93 1018.0
20260906100035 17 20 1.6 4.8 0.00 0.00 0.00 93 1017.7
20260906094536 17 20 1.6 8.0 0.00 0.00 0.00 93 1017.7
20260906093041 17 20 3.2 8.0 0.00 0.00 0.00 93 1017.8
20260906091552 17 0 1.6 6.4 0.00 0.00 0.00 93 1017.8
20260906090038 17 327 0.0 3.2 0.00 0.00 0.00 93 1017.7
20260906084537 17 0 0.0 0.0 0.00 0.00 0.00 92 1017.7
20260906083039 17 0 0.0 0.0 0.00 0.00 0.00 92 1017.8
20260906081541 17 0 0.0 0.0 0.00 0.00 0.00 92 1017.7
20260906080039 17 0 0.0 1.6 0.00 0.00 0.00 92 1017.4
20260906074546 17 0 0.0 3.2 0.00 0.00 0.00 92 1017.4
20260906073040 17 0 0.0 3.2 0.00 0.00 0.00 92 1017.5
20260906071539 17 0 0.0 3.2 0.00 0.00 0.00 92 1017.5
20260906070039 17 0 0.0 4.8 0.00 0.00 0.00 92 1017.4
20260906064538 17 0 0.0 4.8 0.00 0.00 0.00 91 1017.5
20260906063038 18 327 0.0 3.2 0.00 0.00 0.00 91 1017.5
20260906061538 18 0 0.0 3.2 0.00 0.00 0.00 91 1017.5
20260906060039 18 0 0.0 0.0 0.00 0.00 0.00 91 1017.5
20260906054543 18 0 0.0 3.2 0.00 0.00 0.00 91 1017.4
20260906053039 19 0 0.0 1.6 0.00 0.00 0.00 92 1017.4
20260906051540 19 0 0.0 4.8 0.00 0.00 0.00 92 1017.4
20260906050050 20 0 0.0 3.2 0.00 0.00 0.00 92 1017.3
20260906044538 20 327 1.6 6.4 0.00 0.00 0.00 92 1017.2
20260906043043 20 9 4.8 12.9 0.00 0.00 0.00 92 1016.9
20260906041539 20 12 6.4 16.1 0.00 0.00 0.00 92 1016.8
20260906040040 20 40 4.8 12.9 0.00 0.00 0.00 92 1016.6
20260906034537 20 22 6.4 14.5 0.00 0.00 0.00 92 1016.6
20260906033047 20 5 3.2 9.7 0.00 0.00 0.00 92 1016.6
20260906031541 20 345 1.6 16.1 0.00 0.00 0.00 92 1016.6
20260906030044 20 342 3.2 14.5 0.00 0.00 0.00 91 1016.5
20260906024545 20 15 6.4 19.3 0.00 0.00 0.00 91 1016.6
20260906023049 20 351 6.4 17.7 0.00 0.00 0.00 91 1016.6
20260906021540 20 15 6.4 16.1 0.00 0.00 0.00 90 1016.6
20260906020051 20 11 4.8 12.9 0.00 0.00 0.00 90 1016.8
20260906014538 20 10 4.8 16.1 0.00 0.00 0.00 90 1016.6
20260906013047 20 355 4.8 17.7 0.00 0.00 0.00 90 1016.6
20260906011556 21 360 9.7 17.7 0.00 0.00 0.00 90 1016.5
20260906010045 21 13 8.0 19.3 0.00 0.00 0.00 90 1016.5
20260906004539 21 11 11.3 22.5 0.00 0.00 0.00 90 1016.3
20260906003040 21 38 6.4 24.1 0.00 0.00 0.00 90 1016.2
20260906001541 21 5 8.0 25.7 0.00 0.00 0.00 90 1016.4
20260906000051 21 19 11.3 24.1 0.00 0.00 0.00 90 1016.2
20260905234540 21 31 8.0 19.3 0.00 0.00 0.00 90 1016.2
20260905233041 21 9 9.7 24.1 0.00 0.00 0.00 89 1016.3
20260905231539 21 64 14.5 32.2 0.00 0.00 0.00 88 1016.2
20260905230040 22 34 9.7 29.0 0.00 0.00 0.00 88 1016.1
20260905224548 22 28 8.0 19.3 0.00 0.00 0.00 88 1016.0
20260905223039 22 28 11.3 24.1 0.00 0.00 0.00 87 1015.9
20260905221540 22 30 9.7 25.7 0.00 0.00 0.00 86 1016.1
20260905220039 22 351 14.5 33.8 0.00 0.00 0.00 86 1015.8
20260905214541 22 352 8.0 27.4 0.00 0.00 0.00 85 1015.6
20260905213044 23 13 11.3 27.4 0.00 0.00 0.00 84 1015.3
20260905211549 23 360 19.3 35.4 0.00 0.00 0.00 82 1015.2
20260905210044 24 24 12.9 32.2 0.00 0.00 0.00 81 1015.2
20260905204543 25 37 9.7 24.1 0.00 0.00 0.00 82 1015.1
20260905203041 25 60 12.9 30.6 0.00 0.00 0.00 81 1015.1
20260905201540 25 13 11.3 25.7 0.00 0.00 0.00 81 1015.4
20260905200042 26 27 11.3 30.6 0.00 0.00 0.00 80 1015.5
20260905194536 26 12 11.3 22.5 0.00 0.00 0.00 80 1015.4
20260905193039 26 17 11.3 22.5 0.00 0.00 0.00 82 1015.4
20260905191538 25 35 14.5 20.9 0.00 0.00 0.00 82 1015.4
20260905190038 25 5 6.4 17.7 0.00 0.00 0.00 85 1015.4
20260905184559 24 342 3.2 16.1 0.00 0.00 0.00 86 1015.6
20260905183047 23 348 6.4 14.5 0.00 0.00 0.00 87 1015.7
20260905181552 23 17 4.8 14.5 0.00 0.00 0.00 87 1015.7
20260905180043 23 333 6.4 20.9 0.00 0.00 0.00 87 1015.6
20260905174536 23 360 11.3 22.5 0.00 0.00 0.00 86 1015.6
20260905173039 23 360 6.4 20.9 0.00 0.00 0.00 87 1015.6
20260905171542 23 28 9.7 16.1 0.00 0.00 0.00 86 1015.7
20260905170039 23 22 11.3 19.3 0.00 0.00 0.00 85 1015.8
20260905164535 23 350 6.4 19.3 0.00 0.00 0.00 86 1015.8
20260905163040 23 313 4.8 16.1 0.00 0.00 0.00 87 1015.7
20260905161536 23 360 6.4 17.7 0.00 0.00 0.00 87 1015.7
20260905160047 23 15 9.7 19.3 0.00 0.00 0.00 88 1015.7
20260905154605 23 17 8.0 17.7 0.00 0.00 0.00 89 1015.6
20260905153039 23 338 6.4 17.7 0.00 0.00 0.00 89 1015.6
20260905151540 23 360 6.4 16.1 0.00 0.00 0.00 89 1015.4
20260905150043 23 44 8.0 17.7 0.00 0.00 0.00 90 1015.2
20260905144541 23 355 6.4 17.7 0.00 0.00 0.00 91 1015.3
20260905143039 22 5 4.8 17.7 0.00 0.00 0.00 92 1014.9
20260905141536 22 360 11.3 22.5 0.00 0.00 0.00 92 1014.9
20260905140046 22 344 4.8 17.7 0.00 0.00 0.00 93 1014.8
20260905134539 22 19 8.0 17.7 0.00 0.00 0.00 93 1014.6
20260905133044 22 360 4.8 17.7 0.00 0.00 0.00 93 1014.9
20260905131542 22 5 9.7 19.3 0.00 0.00 0.00 94 1014.9